Weather History for KCLL - December, 2014

Change the Weather History Date:

Wednesday, December 17, 2014

  Actual Average Record
Temperature  
Mean Temperature 50 °F 52 °F  
Max Temperature 56 °F 62 °F 81 °F (1924)
Min Temperature 44 °F 42 °F 20 °F (1932)
Degree Days  
Heating Degree Days 15 14  
Month to date heating degree days 109 210  
Since 1 July heating degree days 404 435  
Cooling Degree Days 0 0  
Month to date cooling degree days 10 13  
Year to date cooling degree days 2943 3086  
Moisture  
Dew Point 43 °F    
Average Humidity 74    
Maximum Humidity 93    
Minimum Humidity 55    
Precipitation  
Precipitation 0.02 in 0.10 in 1.11 in (1910)
Month to date precipitation 0.25 1.77  
Year to date precipitation 37.29 38.60  
Sea Level Pressure  
Sea Level Pressure 30.15 in    
Wind  
Wind Speed 7 mph (ENE)    
Max Wind Speed 21 mph    
Max Gust Speed 25 mph    
Visibility 10 miles    
Events Rain    
T = Trace of Precipitation, MM = Missing Value Source: NWS Daily Summary

Daily Weather History Graph

Daily Weather History Graph

Search for Another Location

Airport or City:

Trip Planner

Search our weather history database for the weather conditions in past years. The results will help you decide how hot, cold, wet, or windy it might be!

Date:

Astronomy

Dec. 17, 2014 Rise Set
Actual Time 7:16 AM CST 5:26 PM CST
Civil Twilight 6:49 AM CST 5:53 PM CST
Nautical Twilight 6:19 AM CST 6:23 PM CST
Astronomical Twilight 5:50 AM CST 6:52 PM CST
Moon 2:46 AM CST (12/17) 2:17 PM CST (12/17)
Length of Visible Light 11h 03m
Length of Day
10h 10m
Waning Crescent, 21% of the Moon is Illuminated
Dec 17
Waning Crescent
Dec 21
New
Dec 28
First Quarter
Jan 4
Full
Jan 13
Last Quarter

Hourly Weather History & Observations

Time (CST) Temp. Windchill Dew Point Humidity Pressure Visibility Wind Dir Wind Speed Gust Speed Precip Events Conditions
12:53 AM 46.0 °F 43.1 °F 34.0 °F 63% 30.27 in 10.0 mi ENE 5.8 mph - N/A   Clear
1:53 AM 45.0 °F 40.6 °F 34.0 °F 65% 30.27 in 10.0 mi NE 8.1 mph - N/A   Clear
2:53 AM 45.0 °F 39.7 °F 34.0 °F 65% 30.25 in 10.0 mi ENE 10.4 mph - N/A   Partly Cloudy
3:53 AM 45.0 °F 41.2 °F 35.1 °F 68% 30.24 in 10.0 mi ENE 6.9 mph - N/A   Overcast
4:53 AM 45.0 °F 41.8 °F 36.0 °F 71% 30.24 in 10.0 mi East 5.8 mph - N/A   Overcast
5:53 AM 45.0 °F 40.6 °F 36.0 °F 71% 30.21 in 10.0 mi East 8.1 mph - N/A   Overcast
6:53 AM 46.0 °F 42.5 °F 37.0 °F 71% 30.22 in 10.0 mi East 6.9 mph - N/A   Overcast
7:53 AM 46.9 °F - 37.0 °F 68% 30.23 in 10.0 mi East 8.1 mph - N/A   Overcast
8:53 AM 48.0 °F - 37.0 °F 66% 30.25 in 10.0 mi ESE 8.1 mph - N/A   Overcast
9:53 AM 48.9 °F - 37.9 °F 66% 30.26 in 10.0 mi East 5.8 mph - N/A   Overcast
10:53 AM 50.0 °F - 39.9 °F 68% 30.24 in 10.0 mi East 8.1 mph - 0.00 in Rain Light Rain
11:53 AM 52.0 °F - 39.0 °F 61% 30.20 in 10.0 mi East 8.1 mph - 0.00 in   Overcast
12:53 PM 53.1 °F - 39.9 °F 61% 30.16 in 10.0 mi ENE 8.1 mph - N/A   Overcast
1:53 PM 55.0 °F - 39.9 °F 57% 30.12 in 10.0 mi East 6.9 mph - N/A   Overcast
2:07 PM 54.0 °F - 39.9 °F 59% 30.12 in 10.0 mi East 5.8 mph - N/A   Overcast
2:26 PM 55.0 °F - 39.9 °F 57% 30.12 in 10.0 mi ESE 6.9 mph - N/A   Overcast
2:53 PM 55.0 °F - 41.0 °F 59% 30.09 in 10.0 mi East 9.2 mph - N/A   Overcast
3:53 PM 55.4 °F - 42.8 °F 63% 30.11 in 10.0 mi Calm Calm - N/A   Overcast
4:26 PM 53.1 °F - 46.9 °F 80% 30.03 in 10.0 mi East 15.0 mph - 0.01 in Rain Light Rain
4:53 PM 53.1 °F - 48.0 °F 83% 30.05 in 10.0 mi SE 5.8 mph - 0.02 in Rain Light Rain
5:24 PM 54.0 °F - 50.0 °F 86% 30.07 in 10.0 mi Calm Calm - 0.00 in   Overcast
5:53 PM 54.0 °F - 51.1 °F 90% 30.09 in 10.0 mi NNW 5.8 mph - 0.00 in   Overcast
6:53 PM 53.1 °F - 48.9 °F 86% 30.10 in 10.0 mi ENE 4.6 mph - N/A   Overcast
7:53 PM 52.0 °F - 48.9 °F 89% 30.09 in 10.0 mi East 6.9 mph - N/A   Scattered Clouds
8:53 PM 52.0 °F - 48.9 °F 89% 30.09 in 10.0 mi East 6.9 mph - N/A   Overcast
9:51 PM 53.6 °F - 50.0 °F 88% 30.11 in 10.0 mi Calm Calm - N/A   Overcast
9:53 PM 53.1 °F - 50.0 °F 89% 30.11 in 10.0 mi Calm Calm - N/A   Overcast
10:08 PM 54.0 °F - 50.0 °F 86% 30.11 in 10.0 mi NE 3.5 mph - N/A   Overcast
10:53 PM 54.0 °F - 51.1 °F 90% 30.11 in 10.0 mi NNW 5.8 mph - N/A   Overcast
11:35 PM 52.0 °F - 48.9 °F 89% 30.12 in 10.0 mi North 8.1 mph - N/A   Overcast
11:53 PM 52.0 °F - 48.9 °F 89% 30.11 in 10.0 mi NNE 6.9 mph - N/A   Overcast